Theta_e
323 327 328 329 328 325 324 323 322 322 322 319 317 317 316 316 317 318 317 317 318 319 316 315 314 314 312 312 313 313 312 310 311 310 311 313 314 314 315 318 320 323 324
321 324 326 326 324 322 321 322 323 322 320 318 320 318 314 314 316 314 314 316 317 319 316 314 314 313 311 310 309 310 310 310 309 309 308 304 308 312 314 316 319 320 331
319 322 324 323 323 320 321 321 321 321 320 318 316 314 313 311 310 311 311 314 317 317 314 313 313 313 313 309 309 310 308 307 309 309 306 303 302 308 312 312 316 321 324
321 322 323 320 319 320 320 320 320 320 319 316 314 312 309 307 309 309 309 312 314 312 314 313 312 310 310 308 309 312 310 310 308 310 311 310 308 305 303 308 313 318 322
319 320 320 320 319 317 317 318 319 318 318 316 314 311 309 310 310 308 309 308 309 311 313 311 310 310 310 310 310 312 312 312 310 309 309 309 311 309 305 304 308 314 318
318 319 320 318 315 315 314 318 318 319 317 315 314 312 310 309 308 308 305 306 307 308 308 310 309 309 310 311 312 312 310 309 311 311 311 311 309 308 308 307 307 309 313
317 315 311 312 311 312 312 314 315 314 312 313 315 311 310 308 306 305 305 305 305 304 306 308 307 308 311 310 309 307 307 308 310 310 310 312 311 311 307 309 306 309 313
312 312 309 308 311 311 311 313 313 313 313 310 311 310 309 308 306 306 306 305 305 305 307 306 307 307 310 307 309 306 305 308 310 309 306 306 307 308 310 310 308 307 310
309 309 310 312 312 311 311 311 311 310 312 311 310 308 310 307 306 306 306 305 305 308 307 306 306 307 307 305 305 304 306 307 308 307 308 308 309 310 311 312 313 309 306
305 306 307 308 308 307 309 310 311 308 309 308 307 307 306 307 307 306 304 305 305 305 304 307 307 306 306 305 305 305 305 305 305 306 305 306 309 309 310 311 312 312 310
303 305 306 306 306 308 307 307 306 306 305 305 304 305 306 306 305 304 304 304 304 303 304 306 303 304 304 304 302 303 304 304 304 304 304 305 307 307 309 309 310 310 308
303 303 304 305 303 302 303 303 305 304 304 304 304 304 304 304 303 303 303 303 302 303 303 303 304 304 305 305 305 304 304 304 303 303 304 304 307 306 308 309 309 310 311
303 303 302 302 301 300 301 300 302 303 305 305 303 302 302 302 301 301 305 304 302 302 302 304 303 305 306 303 302 304 304 304 303 304 305 305 304 303 303 306 304 308 310
302 301 300 299 299 300 299 299 300 302 304 303 301 301 300 300 301 303 303 304 304 304 305 304 305 304 304 301 302 305 304 303 304 303 303 305 304 302 302 303 301 303 307
301 299 298 297 298 298 297 299 300 301 303 302 300 299 301 301 302 303 303 304 303 304 304 304 304 303 301 302 300 304 303 302 302 302 303 304 305 306 304 303 301 300 301
300 299 299 298 298 298 298 299 299 300 302 301 299 301 301 301 302 303 303 303 304 303 303 304 303 301 302 301 302 303 303 303 302 302 303 303 304 302 303 304 305 303 301
299 298 298 297 297 297 299 297 298 300 300 299 302 303 303 303 303 303 303 302 302 301 301 302 302 298 297 300 300 303 303 302 302 301 299 301 300 299 299 302 303 303 304
298 297 296 296 298 299 297 298 299 299 299 300 302 303 304 304 304 304 302 302 302 301 302 302 302 298 299 299 298 300 304 303 301 298 296 296 297 298 298 301 301 301 302
297 299 299 296 299 301 298 300 298 300 301 302 302 303 303 303 303 303 301 302 301 301 302 303 301 298 297 298 298 302 304 305 300 298 297 296 295 297 298 302 300 301 302
298 296 297 299 297 298 299 298 300 300 300 302 303 303 303 302 302 301 301 304 302 301 304 303 304 304 299 297 297 300 301 303 302 300 296 298 296 295 296 298 300 299 301
297 297 297 296 298 299 300 299 299 299 302 304 304 303 302 301 302 300 301 301 300 300 300 301 303 303 299 299 297 297 299 300 299 297 296 297 296 295 296 298 300 299 302
296 298 298 297 298 300 300 299 297 301 303 305 304 301 302 303 303 299 298 297 298 300 297 297 299 301 302 300 298 297 297 300 297 297 297 297 296 295 296 299 297 298 301
296 297 299 297 300 299 299 297 299 303 304 303 301 301 304 302 300 298 295 296 296 297 296 296 295 296 298 297 297 297 297 299 298 298 297 297 296 297 298 297 298 299 301
297 296 297 297 297 299 302 302 303 304 301 299 300 300 299 299 297 298 297 295 294 294 295 296 296 296 297 296 295 297 298 299 300 299 298 298 297 297 299 300 301 302 301
295 297 297 297 299 303 302 304 305 302 299 300 301 299 299 298 295 294 294 296 295 295 295 294 295 295 294 295 294 294 297 297 296 297 297 296 296 297 298 300 301 301 301
297 298 300 301 301 303 303 303 304 302 299 298 299 300 299 298 300 299 298 295 294 294 292 293 293 296 293 293 293 294 293 293 294 296 295 295 296 296 297 298 298 299 299
Wind_Speed
17 19 17 16 15 12 12 10 8 5 5 4 3 4 4 4 5 6 11 11 10 11 6 4 5 5 4 4 5 7 5 5 6 9 9 10 13 14 7 6 12 12 14
15 17 16 16 14 10 11 10 9 8 4 2 1 2 1 2 1 4 6 6 11 8 11 9 6 6 5 6 5 5 7 6 4 5 9 8 8 9 6 8 8 12 9
17 15 15 13 13 11 11 9 9 9 6 5 2 0 1 1 1 3 4 3 5 6 6 7 6 8 5 5 5 5 6 9 7 6 4 6 5 12 7 9 4 9 9
14 12 14 9 12 9 10 10 9 9 7 6 3 3 3 2 2 2 3 5 5 6 6 6 5 6 5 6 5 7 6 6 8 7 5 6 5 6 10 2 6 8 9
10 12 10 9 7 8 10 8 8 8 6 5 4 2 1 2 1 2 4 5 5 6 5 6 8 9 7 6 7 7 9 7 7 6 6 5 6 5 3 9 9 8 3
13 10 7 7 7 4 4 7 9 7 5 5 5 3 2 3 5 4 4 4 4 4 5 6 6 9 9 8 8 7 7 7 6 7 5 6 4 5 5 4 8 5 4
9 6 4 3 10 8 7 8 7 4 4 3 2 3 7 5 4 4 3 5 4 3 5 6 5 7 9 6 7 5 6 7 6 6 6 4 5 2 3 4 5 4 3
2 10 11 8 7 7 7 5 3 3 6 6 7 7 6 4 3 2 3 4 3 4 4 6 5 7 6 6 5 4 5 6 5 6 4 3 4 3 4 4 5 4 3
9 7 5 4 8 10 9 9 9 9 8 7 5 6 6 6 4 5 5 4 4 4 5 6 6 6 5 5 6 5 6 6 5 5 6 6 5 5 5 4 4 2 3
9 9 14 13 9 8 9 12 9 6 7 7 6 5 4 5 5 4 6 6 6 5 6 6 6 7 7 6 7 6 7 6 5 4 5 5 4 5 5 5 4 2 2
10 12 12 10 14 14 11 9 9 8 7 6 5 6 6 6 6 4 5 6 5 5 6 5 6 8 8 6 6 6 6 7 6 6 5 6 6 5 5 4 4 2 1
11 11 12 15 13 12 12 13 11 10 7 6 6 5 5 6 6 6 7 6 5 6 6 6 6 8 7 6 6 7 7 6 5 7 6 6 6 6 5 5 5 3 3
14 13 14 13 12 11 10 10 10 12 8 9 6 6 7 6 6 6 7 6 5 5 5 8 7 7 5 6 6 5 6 6 5 8 5 5 6 7 6 6 6 6 2
13 12 12 12 11 11 10 11 10 10 10 7 6 6 6 7 6 7 7 7 6 6 7 6 6 5 5 4 5 5 6 6 6 6 7 6 6 6 7 6 7 6 5
14 12 11 7 7 9 6 7 7 9 11 8 8 8 7 7 7 7 7 7 7 6 6 6 5 4 3 3 5 4 5 6 6 7 7 6 10 12 10 4 4 5 4
10 9 9 10 8 9 7 6 8 9 9 9 8 8 7 7 7 7 6 6 6 6 5 5 2 5 3 8 7 5 3 4 4 5 5 4 7 9 10 9 8 5 4
11 10 9 7 6 7 9 7 8 8 7 8 9 8 7 7 7 6 6 7 5 4 5 5 5 6 6 10 8 7 1 3 4 5 5 5 6 10 6 5 6 4 6
9 7 6 6 7 7 6 7 7 6 7 8 8 6 6 6 7 7 6 6 4 5 4 5 6 6 5 11 10 6 3 1 5 6 6 6 7 10 8 3 4 5 4
6 5 5 5 6 7 5 6 7 7 7 6 6 6 6 6 6 7 6 5 5 4 3 4 6 4 6 12 14 8 4 3 4 4 7 7 7 13 15 3 5 6 7
4 4 5 5 5 6 5 6 7 7 7 6 6 6 6 5 6 5 6 4 3 4 4 4 4 7 5 10 13 9 4 3 3 3 6 13 10 12 12 5 4 6 6
7 6 6 5 5 6 6 7 6 7 7 7 7 6 6 5 5 5 5 6 7 6 6 8 6 5 6 6 10 11 5 4 4 4 3 4 11 13 11 9 5 5 6
6 6 6 6 7 7 5 5 6 7 7 7 8 8 4 4 4 7 7 8 10 7 6 7 8 7 7 12 11 9 8 7 4 5 4 4 10 11 12 7 10 12 9
5 4 5 7 7 6 5 6 3 5 5 7 7 6 6 6 6 6 7 7 8 6 7 6 6 6 6 7 13 12 8 8 6 4 6 9 10 10 7 13 12 10 7
5 5 7 8 6 7 8 6 8 6 6 6 6 5 4 5 7 6 5 6 6 5 6 6 5 5 5 5 6 5 5 5 5 6 6 7 8 9 8 8 9 7 7
5 5 6 6 8 7 6 1 2 4 5 6 6 5 4 5 6 5 4 4 5 4 4 5 5 5 5 5 6 4 5 5 6 6 5 5 6 6 6 7 8 7 7
5 5 6 4 6 8 4 2 4 6 6 6 5 4 5 5 4 3 2 6 4 8 10 9 6 5 7 9 11 10 11 11 10 6 5 6 6 6 6 6 7 7 8
Wind_Direction
138 127 126 123 117 114 116 115 102 66 52 20 12 24 13 347 340 13 351 350 1 338 346 338 323 322 338 326 312 308 298 305 297 304 303 303 296 286 298 314 322 317 311
125 130 125 127 132 133 131 122 126 114 104 72 63 96 337 321 11 350 326 354 347 343 344 345 337 330 322 328 335 320 310 306 302 302 307 308 309 283 327 311 311 304 319
131 135 129 140 137 136 132 134 141 139 146 141 135 99 329 14 5 317 330 341 323 333 352 350 352 346 352 318 298 289 294 304 299 272 256 303 295 320 315 311 309 334 324
134 140 140 124 136 144 143 154 158 146 146 145 138 178 175 198 207 266 300 308 330 349 355 345 342 316 303 295 300 304 292 285 298 305 272 265 273 304 315 2 322 331 328
126 111 101 100 126 153 172 159 143 126 133 153 151 157 238 253 273 338 337 323 353 325 340 338 337 318 311 304 299 302 304 297 287 282 290 288 283 258 269 317 325 321 324
93 98 129 174 182 151 80 106 101 122 166 171 168 147 251 306 21 357 344 342 316 316 330 330 324 320 312 311 313 310 309 303 311 309 295 301 305 319 314 305 314 291 280
81 83 99 78 73 78 73 98 104 141 205 207 73 41 44 59 27 348 338 328 297 307 317 317 313 317 312 334 322 321 317 315 310 313 320 330 326 308 305 297 293 323 298
102 61 90 112 119 137 134 129 148 271 24 37 43 53 35 22 14 8 320 295 290 304 295 306 304 312 334 327 322 308 303 303 311 317 323 324 309 301 296 286 288 315 268
61 112 138 79 34 49 50 46 30 57 51 70 48 42 40 38 10 333 314 284 305 300 322 315 313 305 317 314 319 316 316 315 315 327 353 337 311 311 299 286 272 236 301
69 57 68 59 54 45 45 35 37 55 37 48 39 50 26 9 338 323 309 310 309 333 331 315 329 329 321 318 315 312 312 327 334 328 342 329 314 313 327 314 324 249 263
45 65 71 65 53 49 47 44 36 21 12 30 24 23 16 339 320 316 319 321 335 344 315 333 325 314 304 296 308 306 314 327 317 329 319 319 317 316 318 305 321 304 215
62 55 53 61 53 40 31 20 12 3 7 355 26 20 349 324 331 335 328 325 341 331 322 312 299 297 299 302 293 309 313 311 333 323 326 329 330 356 347 340 342 339 5
52 47 43 39 38 30 26 20 8 348 349 355 357 351 337 323 325 331 320 313 319 302 299 295 290 285 308 337 345 347 350 354 340 344 343 21 16 14 358 1 354 343 324
58 51 40 31 26 22 15 7 358 347 341 329 352 339 316 312 324 313 303 298 293 286 286 293 298 320 323 5 347 357 355 358 10 9 12 8 25 19 6 19 356 342 334
46 39 31 21 15 8 6 2 347 333 337 348 332 307 313 320 310 299 297 292 296 294 299 302 317 344 44 11 343 341 13 10 12 13 7 4 32 30 20 9 351 350 342
46 32 25 19 7 356 351 350 330 333 328 330 311 306 306 300 295 294 305 317 322 322 300 302 333 51 27 355 343 329 51 21 4 358 348 345 7 359 350 360 3 13 348
35 26 15 7 354 347 344 344 327 320 318 306 302 301 311 322 322 324 339 335 324 326 342 13 85 58 10 1 341 307 299 47 23 15 356 1 356 355 346 327 348 339 13
35 21 1 339 338 335 328 324 306 303 300 296 304 311 322 332 334 337 344 343 337 346 15 41 67 53 4 350 334 311 195 42 57 41 30 10 352 348 349 348 345 352 353
45 4 343 320 323 320 327 300 310 308 311 309 332 325 335 338 349 344 355 351 4 10 36 66 59 68 8 359 359 25 124 138 100 69 48 24 356 351 357 37 10 10 18
66 353 338 333 344 313 312 312 307 306 308 321 317 307 320 2 4 4 355 338 16 6 28 43 92 57 33 9 22 27 14 80 142 79 48 24 17 2 5 25 21 35 25
20 359 327 317 306 320 321 311 316 335 321 325 308 330 18 42 20 14 6 2 354 34 24 32 22 28 28 14 23 27 27 46 69 46 41 13 8 6 14 33 40 40 54
8 351 320 330 306 294 293 326 343 332 355 5 359 353 37 27 14 43 18 18 8 26 26 31 12 6 15 20 6 20 42 38 66 68 43 15 17 10 28 39 51 51 64
344 325 312 312 311 331 344 332 350 12 3 359 354 351 24 38 29 49 34 26 16 25 28 22 16 3 5 2 354 358 38 58 70 72 70 35 20 14 37 43 49 53 62
334 320 314 313 343 349 352 11 6 341 352 344 342 341 44 54 40 34 59 42 24 18 16 7 359 355 355 0 348 355 8 46 81 59 49 34 31 35 37 42 48 57 60
323 305 316 349 347 312 332 178 273 349 1 342 333 24 41 84 72 53 28 62 37 29 13 358 344 344 345 344 344 22 37 53 64 65 46 38 32 37 36 48 53 54 56
299 333 323 336 305 302 329 72 14 2 10 2 27 43 44 41 60 66 74 72 88 53 35 18 17 343 8 15 52 60 56 53 47 64 54 49 41 41 44 52 57 52 61